When you browse on this site, cookies collect data to enhance your experience and personalize the content and advertising you see.
Visit our Privacy Policy to learn more. By continuing to use the site, you agree to this use of cookies and data.
  • en France
  • Liste des pays
  • À 7 jours
  • Température de l'eau
  • Carte satellitaire
  • Carte météo
  • Widgets météo
  • user-avatar
    Se connecter

    Météo par heure à Shkodёr

    Ce jour, 23 Janvier, Mercredi

    Heure Température Précipitation Vent Pression Humidité
    00:00 +7°C° 0.7 mm 2 m/s 730 mmHg 93%
    01:00 +7°C° 0 mm 2 m/s 730 mmHg 94%
    02:00 +6°C° 0.7 mm 2 m/s 729 mmHg 94%
    03:00 +6°C° 0.7 mm 2 m/s 729 mmHg 94%
    04:00 +6°C° 0.7 mm 2 m/s 729 mmHg 94%
    05:00 +6°C° 0.7 mm 2 m/s 729 mmHg 93%
    06:00 +6°C° 0.7 mm 2 m/s 729 mmHg 91%
    07:00 +6°C° 0 mm 2 m/s 728 mmHg 90%
    08:00 +7°C° 0.1 mm 2 m/s 728 mmHg 87%
    09:00 +7°C° 0.1 mm 2 m/s 728 mmHg 83%
    10:00 +8°C° 0.1 mm 2 m/s 728 mmHg 80%
    11:00 +8°C° 0.1 mm 2 m/s 727 mmHg 78%
    12:00 +9°C° 0.1 mm 2 m/s 727 mmHg 77%
    13:00 +9°C° 0.1 mm 2 m/s 726 mmHg 75%
    14:00 +10°C° 0 mm 1 m/s 726 mmHg 76%
    15:00 +9°C° 0 mm 1 m/s 725 mmHg 78%
    16:00 +8°C° 0 mm 0 m/s 725 mmHg 80%
    17:00 +8°C° 0 mm 1 m/s 725 mmHg 80%
    18:00 +8°C° 0 mm 1 m/s 724 mmHg 81%
    19:00 +6°C° 0 mm 2 m/s 724 mmHg 82%
    20:00 +6°C° 0 mm 2 m/s 724 mmHg 81%
    21:00 +6°C° 0 mm 2 m/s 724 mmHg 80%
    22:00 +6°C° 0 mm 2 m/s 724 mmHg 80%
    23:00 +6°C° 0 mm 2 m/s 724 mmHg 80%

    Demain, 24 Janvier, Jeudi

    Heure Température Précipitation Vent Pression Humidité
    00:00 +5°C° 0 mm 2 m/s 723 mmHg 80%
    01:00 +5°C° 0 mm 2 m/s 723 mmHg 80%
    02:00 +5°C° 0.2 mm 2 m/s 723 mmHg 81%
    03:00 +5°C° 0.2 mm 2 m/s 723 mmHg 81%
    04:00 +5°C° 0.2 mm 2 m/s 723 mmHg 82%
    05:00 +6°C° 0.5 mm 1 m/s 723 mmHg 83%
    06:00 +6°C° 0.5 mm 1 m/s 723 mmHg 85%
    07:00 +6°C° 0.5 mm 1 m/s 723 mmHg 87%
    08:00 +6°C° 0.1 mm 1 m/s 723 mmHg 85%
    09:00 +7°C° 0.1 mm 1 m/s 724 mmHg 83%
    10:00 +8°C° 0.1 mm 1 m/s 724 mmHg 81%
    11:00 +8°C° 0 mm 1 m/s 724 mmHg 78%
    12:00 +9°C° 0 mm 1 m/s 724 mmHg 74%
    13:00 +9°C° 0 mm 1 m/s 724 mmHg 70%
    14:00 +9°C° 0 mm 1 m/s 724 mmHg 72%
    15:00 +8°C° 0 mm 2 m/s 724 mmHg 74%
    16:00 +7°C° 0 mm 2 m/s 724 mmHg 75%
    17:00 +5°C° 0 mm 3 m/s 725 mmHg 75%
    18:00 +4°C° 0 mm 3 m/s 725 mmHg 76%
    19:00 +3°C° 0 mm 4 m/s 725 mmHg 76%
    20:00 +3°C° 0 mm 4 m/s 725 mmHg 75%
    21:00 +2°C° 0 mm 5 m/s 725 mmHg 73%
    22:00 +2°C° 0 mm 5 m/s 724 mmHg 72%
    23:00 +2°C° 0 mm 5 m/s 724 mmHg 71%

    Après-demain, 25 Janvier, Vendredi

    Heure Température Précipitation Vent Pression Humidité
    00:00 +2°C° 0 mm 6 m/s 724 mmHg 70%
    01:00 +2°C° 0 mm 6 m/s 724 mmHg 70%
    02:00 +2°C° 0.4 mm 6 m/s 724 mmHg 71%
    03:00 +2°C° 0.4 mm 5 m/s 724 mmHg 73%
    04:00 +2°C° 0.4 mm 5 m/s 724 mmHg 75%
    05:00 +3°C° 0.3 mm 4 m/s 724 mmHg 77%
    06:00 +1°C° 0.3 mm 4 m/s 724 mmHg 79%
    07:00 +1°C° 0.3 mm 4 m/s 724 mmHg 80%
    08:00 +1°C° 0.4 mm 4 m/s 725 mmHg 80%
    09:00 +3°C° 0.4 mm 4 m/s 725 mmHg 79%
    10:00 +3°C° 0.4 mm 4 m/s 725 mmHg 79%
    11:00 +4°C° 0.2 mm 4 m/s 725 mmHg 77%
    12:00 +4°C° 0.2 mm 4 m/s 725 mmHg 75%
    13:00 +5°C° 0.2 mm 3 m/s 725 mmHg 73%
    14:00 +4°C° 0.2 mm 3 m/s 725 mmHg 74%
    15:00 +4°C° 0.2 mm 3 m/s 726 mmHg 75%
    16:00 +3°C° 0.2 mm 3 m/s 726 mmHg 76%
    17:00 +3°C° 0 mm 3 m/s 726 mmHg 76%
    18:00 +2°C° 0 mm 3 m/s 727 mmHg 75%
    19:00 +1°C° 0 mm 4 m/s 727 mmHg 75%
    20:00 +1°C° 0 mm 4 m/s 727 mmHg 75%
    21:00 0°C° 0 mm 4 m/s 728 mmHg 74%
    22:00 0°C° 0 mm 4 m/s 728 mmHg 74%
    23:00 0°C° 0 mm 4 m/s 728 mmHg 73%

    26 Janvier, Samedi

    Heure Température Précipitation Vent Pression Humidité
    00:00 0°C° 0 mm 4 m/s 728 mmHg 73%
    01:00 0°C° 0 mm 4 m/s 728 mmHg 73%
    02:00 0°C° 0 mm 4 m/s 728 mmHg 73%
    03:00 0°C° 0 mm 4 m/s 728 mmHg 73%
    04:00 -1°C° 0 mm 4 m/s 728 mmHg 73%
    05:00 -1°C° 0 mm 4 m/s 728 mmHg 72%
    06:00 -1°C° 0 mm 4 m/s 729 mmHg 72%
    07:00 -1°C° 0 mm 4 m/s 729 mmHg 71%
    08:00 0°C° 0 mm 4 m/s 729 mmHg 68%
    09:00 +3°C° 0 mm 4 m/s 730 mmHg 65%
    10:00 +4°C° 0 mm 4 m/s 730 mmHg 62%
    11:00 +5°C° 0 mm 4 m/s 730 mmHg 62%
    12:00 +5°C° 0 mm 4 m/s 730 mmHg 61%
    13:00 +6°C° 0 mm 4 m/s 730 mmHg 60%
    14:00 +5°C° 0 mm 4 m/s 730 mmHg 62%
    15:00 +5°C° 0 mm 4 m/s 731 mmHg 64%
    16:00 +4°C° 0 mm 4 m/s 731 mmHg 66%
    17:00 +3°C° 0 mm 4 m/s 731 mmHg 68%
    18:00 +1°C° 0 mm 4 m/s 732 mmHg 69%
    19:00 0°C° 0 mm 4 m/s 732 mmHg 71%
    20:00 0°C° 0 mm 4 m/s 732 mmHg 71%
    21:00 0°C° 0 mm 4 m/s 733 mmHg 71%
    22:00 +1°C° 0 mm 3 m/s 733 mmHg 71%
    23:00 0°C° 0 mm 3 m/s 733 mmHg 72%

    27 Janvier, Dimanche

    Heure Température Précipitation Vent Pression Humidité
    00:00 0°C° 0 mm 3 m/s 733 mmHg 72%
    01:00 0°C° 0 mm 3 m/s 733 mmHg 72%
    02:00 0°C° 0 mm 3 m/s 733 mmHg 72%
    03:00 0°C° 0 mm 3 m/s 732 mmHg 72%
    04:00 0°C° 0 mm 3 m/s 732 mmHg 73%
    05:00 0°C° 0 mm 3 m/s 732 mmHg 72%
    06:00 0°C° 0 mm 3 m/s 732 mmHg 72%
    07:00 +1°C° 0 mm 2 m/s 732 mmHg 72%
    08:00 +2°C° 0 mm 2 m/s 732 mmHg 68%
    09:00 +4°C° 0 mm 2 m/s 732 mmHg 64%
    10:00 +6°C° 0 mm 1 m/s 732 mmHg 60%
    11:00 +7°C° 0 mm 1 m/s 731 mmHg 58%
    12:00 +8°C° 0 mm 1 m/s 731 mmHg 56%
    13:00 +8°C° 0 mm 1 m/s 730 mmHg 55%
    14:00 +8°C° 0 mm 1 m/s 730 mmHg 58%
    15:00 +7°C° 0 mm 1 m/s 730 mmHg 61%
    16:00 +7°C° 0 mm 1 m/s 730 mmHg 65%
    17:00 +6°C° 0 mm 1 m/s 731 mmHg 66%
    18:00 +5°C° 0 mm 1 m/s 731 mmHg 68%
    19:00 +4°C° 0 mm 1 m/s 732 mmHg 69%
    20:00 +4°C° 0 mm 1 m/s 732 mmHg 69%
    21:00 +3°C° 0 mm 1 m/s 732 mmHg 70%
    22:00 +3°C° 0 mm 1 m/s 732 mmHg 70%
    23:00 +3°C° 0 mm 1 m/s 732 mmHg 69%

    28 Janvier, Lundi

    Heure Température Précipitation Vent Pression Humidité
    00:00 +2°C° 0 mm 2 m/s 732 mmHg 69%
    01:00 +2°C° 0 mm 2 m/s 732 mmHg 69%
    02:00 +2°C° 0 mm 2 m/s 732 mmHg 69%
    03:00 +2°C° 0 mm 2 m/s 732 mmHg 70%
    04:00 +2°C° 0 mm 2 m/s 732 mmHg 70%
    05:00 +3°C° 0.1 mm 2 m/s 732 mmHg 72%
    06:00 +3°C° 0.1 mm 2 m/s 732 mmHg 73%
    07:00 +4°C° 0.1 mm 2 m/s 732 mmHg 75%
    08:00 +5°C° 0.1 mm 2 m/s 732 mmHg 73%
    09:00 +6°C° 0.1 mm 2 m/s 732 mmHg 72%
    10:00 +7°C° 0.1 mm 2 m/s 732 mmHg 71%
    11:00 +7°C° 0.4 mm 2 m/s 732 mmHg 72%
    12:00 +7°C° 0.4 mm 2 m/s 731 mmHg 74%
    13:00 +7°C° 0.4 mm 2 m/s 731 mmHg 76%
    14:00 +7°C° 0.9 mm 2 m/s 731 mmHg 77%
    15:00 +6°C° 0.9 mm 2 m/s 731 mmHg 79%
    16:00 +6°C° 0.9 mm 2 m/s 731 mmHg 81%
    17:00 +6°C° 1 mm 2 m/s 731 mmHg 82%
    18:00 +5°C° 1 mm 3 m/s 731 mmHg 83%
    19:00 +4°C° 1 mm 3 m/s 731 mmHg 84%
    20:00 +4°C° 0.9 mm 3 m/s 731 mmHg 84%
    21:00 +4°C° 0.9 mm 3 m/s 731 mmHg 84%
    22:00 +4°C° 0.9 mm 3 m/s 731 mmHg 84%
    23:00 +4°C° 0.1 mm 3 m/s 731 mmHg 82%
    Voir plus